Wind_Speed
4 2 2 4 6 7 7 7 8 7 7 7 3 2 3 2 5 8 9 8 6 9 6 9 7 5 6 3 6 12 15 16 19 20 21 25 27 30 31 33 33 32 31 30 29 30 29 29 29 30 31 27 24 23 22 24 24 22 21 21 22 22 22 20 19 20 19 16 14 14 13 11 10 8 6 5 4 5 6 7 8 9 9 8 8 8
3 3 6 9 10 10 9 8 7 6 6 5 1 1 4 1 5 9 6 6 3 7 0 2 7 3 6 4 5 11 8 8 18 20 20 26 28 30 32 33 34 30 30 30 29 29 28 29 29 30 31 28 25 24 22 23 23 22 22 23 23 22 21 20 19 19 19 16 12 12 14 12 10 8 5 4 4 4 5 7 8 9 9 8 8 8
1 4 10 13 10 6 6 5 5 5 4 1 1 1 4 3 4 8 6 7 5 5 0 1 6 5 6 4 4 13 14 16 25 29 30 32 28 27 30 32 33 31 30 30 30 30 29 28 27 27 30 28 24 23 21 22 24 25 25 23 22 21 21 19 17 17 17 15 11 11 12 12 10 8 7 5 4 4 6 7 8 9 8 9 9 8
2 6 12 12 7 4 4 5 4 1 1 0 0 1 3 2 1 5 6 7 5 3 2 2 2 3 4 2 3 9 16 19 25 29 32 35 34 32 34 34 35 34 32 32 32 32 31 29 27 27 29 27 25 24 21 23 27 28 25 22 22 22 21 19 18 17 16 14 12 10 11 11 9 9 9 6 5 6 7 8 10 10 10 10 10 9
7 10 9 6 5 8 5 5 4 3 2 3 2 3 3 2 3 5 5 7 6 4 3 5 4 4 3 3 2 4 8 14 18 20 22 28 32 33 34 35 36 36 36 36 35 35 34 32 30 28 28 27 26 25 23 25 29 28 25 23 22 22 21 19 18 17 15 14 14 13 14 14 12 11 11 9 9 10 11 10 11 12 12 12 11 9
9 15 11 4 4 8 7 5 3 4 1 4 3 6 6 5 5 6 5 5 6 5 2 5 3 5 5 2 3 3 2 8 12 15 19 25 25 25 29 34 37 35 36 37 37 38 37 35 33 29 27 27 27 27 25 25 29 28 25 23 22 23 22 19 18 18 15 15 14 14 15 15 14 14 12 11 11 13 14 13 13 13 13 13 11 9
6 12 8 5 5 7 7 4 4 5 5 2 4 6 6 6 5 5 4 1 3 2 4 3 4 4 6 5 5 2 4 7 9 9 14 20 22 24 29 33 36 37 36 37 37 37 37 36 35 32 29 28 29 29 26 25 27 27 26 23 23 24 22 20 18 17 16 15 13 12 13 14 14 13 12 11 11 14 15 14 14 13 14 13 12 10
3 3 4 6 5 6 5 4 5 6 8 3 7 6 5 4 4 3 3 2 2 3 4 4 5 2 4 5 6 2 3 5 10 9 9 16 23 27 29 31 35 37 36 37 37 37 37 36 37 36 32 30 30 30 28 26 26 27 27 24 23 24 22 19 18 17 16 15 13 12 13 13 13 13 11 12 13 14 15 15 15 15 15 14 12 12
2 1 5 6 3 4 4 5 6 6 5 6 7 5 4 4 6 5 6 3 1 1 4 6 3 3 4 6 5 4 3 1 8 11 9 15 25 29 31 32 34 37 36 36 36 36 35 35 37 38 35 33 31 30 29 27 26 27 28 26 23 23 22 19 18 18 17 14 11 12 14 14 13 12 12 14 14 14 14 14 14 14 14 13 11 11
4 7 10 7 4 4 6 6 6 7 4 7 4 3 4 1 3 4 6 3 3 4 3 6 2 2 4 6 5 4 2 3 6 6 5 13 27 31 32 32 32 34 35 35 34 35 35 35 36 37 36 34 33 31 29 28 27 27 28 27 26 24 22 19 18 19 18 14 12 13 15 15 15 15 15 14 13 13 13 12 13 13 12 12 11 11
7 9 8 6 5 7 6 5 5 7 6 4 1 2 3 4 4 4 3 4 4 2 5 6 1 4 1 5 4 1 1 4 2 2 2 8 22 26 27 28 28 29 32 33 33 32 34 35 35 37 36 35 34 33 31 30 29 29 29 29 28 26 24 22 21 21 19 16 15 15 17 17 18 18 17 15 14 14 13 13 13 13 13 12 11 11
6 4 4 4 6 6 4 1 2 1 2 2 2 2 2 4 5 5 4 4 3 2 6 6 1 6 1 4 5 4 4 6 2 6 2 5 16 20 22 25 25 27 29 30 29 29 31 33 34 35 35 35 35 35 34 33 33 33 31 30 30 30 28 25 24 23 19 18 17 16 18 20 19 19 17 15 14 14 14 14 13 13 13 12 12 11
5 3 4 3 4 6 5 1 4 5 5 5 3 4 4 1 4 3 4 2 1 3 4 5 1 3 2 6 6 6 7 8 2 8 8 11 18 21 23 24 23 25 25 24 24 25 26 28 30 33 34 35 36 37 37 36 35 34 32 32 32 33 32 28 27 26 21 19 18 18 20 21 18 17 16 14 13 14 14 14 14 14 13 13 12 12
3 5 5 3 2 4 6 3 2 3 2 4 3 3 4 3 3 1 3 1 2 3 4 4 1 0 3 4 6 6 7 3 7 13 16 21 24 24 25 26 25 24 22 21 20 20 20 21 23 28 32 35 37 38 39 38 36 34 33 33 34 36 35 32 28 26 22 19 19 20 21 19 17 16 16 15 13 14 15 14 14 14 13 13 13 12
1 4 3 2 2 3 5 5 6 4 1 3 5 5 4 4 4 3 3 2 3 3 5 4 1 2 2 4 6 4 4 8 19 20 22 25 26 27 27 26 26 24 23 22 20 19 18 16 16 18 21 25 31 35 38 39 38 37 35 35 36 36 34 29 25 23 20 20 22 23 20 18 19 18 16 16 15 14 16 16 15 16 15 14 14 13
3 4 6 4 3 5 6 5 6 6 1 3 2 5 1 4 5 2 3 5 4 1 3 2 1 3 4 5 5 2 3 11 21 22 24 25 25 28 28 25 26 24 22 21 19 17 15 13 11 11 12 14 20 26 33 37 39 40 39 38 38 35 32 31 29 27 26 25 27 25 20 18 21 21 18 18 17 16 18 18 17 17 16 15 15 14
2 4 7 5 2 2 3 6 6 5 2 2 3 1 4 4 7 4 1 1 4 3 2 1 1 4 3 4 5 6 4 7 14 16 19 22 25 28 27 26 27 24 22 21 20 19 16 13 11 10 10 10 13 18 25 31 35 38 40 40 37 35 36 36 34 32 31 31 30 26 21 20 23 25 22 19 18 18 19 19 18 18 17 16 15 15
4 2 6 4 4 6 8 3 2 3 5 3 1 3 1 2 4 4 1 2 4 2 3 2 1 3 3 2 5 7 4 2 7 10 13 19 24 25 25 27 29 27 25 24 23 22 18 14 12 9 7 5 7 10 16 21 26 31 34 37 37 36 37 35 32 30 31 32 30 27 23 23 25 26 25 21 19 19 20 20 19 18 18 17 16 15
4 0 6 4 2 7 10 6 3 5 2 4 4 3 3 3 1 1 2 1 1 1 3 2 1 1 1 1 5 6 4 3 1 6 8 12 18 22 25 27 28 27 25 23 22 20 15 10 8 7 5 3 4 6 8 11 16 22 26 30 33 34 34 33 33 32 32 32 31 29 26 26 27 28 28 24 20 21 21 20 19 18 17 17 17 15
3 3 4 5 2 3 6 5 3 6 6 3 2 2 2 3 3 2 2 3 3 2 2 2 2 2 2 1 5 6 5 3 3 4 4 5 11 18 22 24 23 22 21 20 19 16 13 9 6 6 7 5 6 6 7 9 11 16 22 27 30 31 31 32 33 33 33 32 33 31 29 28 28 30 31 27 23 22 22 20 19 18 16 16 16 16
3 3 2 5 5 3 2 2 2 2 4 4 3 3 2 1 2 1 1 2 3 4 2 1 2 4 4 2 4 5 2 3 6 5 5 6 10 15 19 21 21 21 21 20 18 16 14 11 8 8 8 8 8 9 9 10 12 14 19 24 28 29 29 31 33 33 33 33 33 32 31 31 30 31 33 30 25 23 22 21 20 19 16 15 15 16
2 2 3 2 4 2 3 3 3 3 1 1 1 1 1 3 3 3 0 2 1 4 3 4 2 4 5 3 5 4 1 5 10 10 7 8 14 16 19 20 20 19 19 18 17 15 13 12 10 8 7 8 10 10 10 11 12 12 15 19 24 26 27 30 31 31 32 33 32 31 30 31 30 29 32 33 28 25 24 22 22 20 18 16 14 14
2 3 3 1 2 3 5 3 3 4 2 4 3 2 2 2 3 5 3 3 1 2 1 4 3 4 5 4 4 1 3 6 10 14 12 10 12 15 17 18 17 17 17 16 16 14 12 11 10 9 7 8 9 10 10 11 12 12 13 16 20 23 25 27 30 31 32 32 32 31 30 31 30 28 31 32 28 27 27 25 24 23 20 18 16 14
2 4 3 1 3 4 5 2 4 7 6 5 4 3 3 3 1 4 5 3 3 1 1 3 1 3 4 5 4 5 11 12 13 14 15 13 11 12 15 16 15 15 15 14 14 12 11 10 9 10 10 9 9 10 11 11 12 14 15 16 19 20 21 25 29 30 30 31 33 33 31 30 30 31 33 34 31 30 30 28 27 26 23 20 18 17
2 1 3 3 3 6 6 6 6 6 5 2 2 4 4 5 4 2 1 3 3 1 3 5 2 3 2 4 2 6 11 12 14 16 18 17 15 14 15 14 13 13 13 12 13 11 10 10 9 10 10 10 10 11 11 12 12 13 14 16 19 21 22 25 28 28 30 33 34 34 32 29 30 33 35 34 32 32 32 31 29 27 24 22 20 19
3 2 3 4 2 0 1 2 2 3 3 2 3 5 5 5 6 3 2 4 2 1 3 5 4 4 3 3 5 6 7 8 11 17 19 17 17 16 15 14 12 10 10 11 12 11 10 10 10 10 10 11 11 11 12 12 12 13 14 15 18 21 24 27 27 27 30 34 33 32 32 30 29 31 33 34 33 32 32 32 31 30 27 24 22 20
4 2 3 6 6 5 4 4 3 1 2 3 5 6 5 4 4 4 4 3 2 2 2 1 4 2 5 8 7 6 4 5 6 10 13 13 15 15 15 15 13 10 10 10 11 12 11 11 11 11 11 11 11 10 11 12 13 14 15 15 17 21 23 25 25 25 27 31 30 27 28 30 29 26 25 27 28 28 30 30 29 29 28 26 24 21
5 2 1 5 4 4 5 2 2 3 3 3 5 6 5 4 5 6 5 2 4 4 2 5 2 6 5 7 7 6 5 5 5 6 7 10 12 13 14 15 13 11 12 13 13 13 12 13 12 11 10 10 10 11 11 12 13 14 15 16 16 18 19 19 21 23 24 27 27 22 22 28 29 23 17 18 23 26 28 29 27 24 23 24 23 22
5 1 2 3 3 1 2 3 4 5 4 4 6 6 5 4 5 6 3 2 4 6 3 2 6 7 3 6 6 5 6 7 10 12 11 10 11 12 12 12 9 8 11 15 16 16 15 14 14 13 11 9 9 10 11 11 12 14 15 15 14 14 15 14 16 19 21 25 26 22 21 23 23 22 20 20 22 22 22 24 27 25 23 23 23 23
4 1 1 4 4 3 5 6 7 8 6 6 8 7 5 4 6 6 3 3 7 7 5 6 10 7 3 5 6 5 7 11 16 20 20 17 14 11 9 7 5 5 8 12 14 16 16 16 16 15 15 12 9 9 9 8 9 11 13 14 13 12 11 11 11 12 14 18 19 18 20 21 20 21 23 23 21 18 17 19 22 24 23 23 22 22
3 1 1 4 4 4 4 6 8 8 7 7 9 10 8 7 8 6 4 4 7 6 5 8 10 6 6 7 8 10 13 16 19 20 20 20 19 17 15 10 4 3 7 8 9 12 13 13 16 16 15 14 12 10 9 7 6 7 10 12 13 12 10 9 9 9 9 9 9 10 12 14 15 17 19 17 14 12 12 13 15 16 17 17 17 18
3 2 1 5 4 3 3 5 6 5 8 9 9 11 10 6 6 5 5 6 4 5 5 8 7 3 6 7 9 15 18 20 19 18 18 19 20 20 18 16 11 3 4 5 6 9 10 10 13 15 15 14 13 11 9 7 5 5 7 9 11 12 11 10 10 11 12 12 11 11 11 13 14 15 15 14 12 11 11 12 13 13 14 14 15 15
3 3 1 3 3 3 3 4 5 5 6 5 4 6 6 3 7 8 9 10 7 3 5 5 3 1 5 6 8 11 14 17 18 19 20 19 21 22 21 21 19 14 9 8 8 9 9 10 13 13 12 12 12 11 9 6 5 4 5 8 11 11 9 8 8 10 11 11 10 10 11 12 12 13 14 13 13 13 13 13 14 14 14 14 14 15
2 5 2 2 4 2 5 3 6 5 2 3 4 4 1 7 12 12 8 9 9 6 5 4 2 1 4 5 6 6 9 15 20 23 25 24 24 25 24 23 22 19 16 13 12 13 12 12 15 15 12 9 8 9 10 7 4 4 4 7 9 9 8 7 6 6 8 8 7 8 9 10 11 12 13 13 13 12 12 12 13 13 12 12 12 13
3 5 2 2 4 2 2 5 5 1 4 5 2 2 4 11 15 15 10 8 9 7 6 6 4 5 6 8 8 6 11 18 24 26 26 26 25 25 25 23 20 18 16 13 10 10 11 12 15 15 12 11 9 6 9 9 7 6 6 6 7 7 7 7 6 5 6 6 8 11 12 11 11 12 12 12 12 11 11 11 11 11 11 10 10 11
5 4 3 2 3 2 1 4 2 4 3 2 2 2 4 5 7 10 9 8 7 5 5 5 5 7 9 13 13 7 8 15 24 25 23 23 22 22 23 23 21 19 17 16 11 5 3 3 7 9 8 9 12 11 9 7 6 7 7 7 7 5 5 5 4 4 5 4 5 9 10 10 11 12 12 11 11 11 11 12 12 12 10 9 10 11
7 4 3 2 2 3 4 2 2 1 0 1 3 2 1 0 1 3 6 3 5 5 4 4 4 8 11 14 16 10 2 7 16 19 20 20 19 17 18 19 19 18 16 17 16 12 9 7 5 5 6 2 5 9 9 8 4 4 5 7 9 8 6 6 4 5 7 7 6 7 8 8 11 12 10 9 8 8 9 9 10 11 10 9 9 9
5 4 5 5 2 3 5 2 1 2 4 3 4 5 3 4 3 5 6 2 4 7 7 4 4 7 10 13 16 15 8 5 6 10 16 18 15 14 14 13 14 15 15 15 15 15 14 13 11 10 11 11 10 6 3 4 3 2 3 3 7 9 8 7 5 4 6 8 9 9 9 9 11 12 11 9 7 6 5 3 5 7 8 8 7 8
6 2 4 4 2 3 5 3 3 4 5 4 5 7 10 11 5 4 6 2 5 9 10 7 7 11 11 12 14 14 10 5 2 6 14 17 15 15 14 13 13 14 13 13 13 13 13 13 13 12 11 11 11 11 10 10 9 6 4 3 3 6 8 7 5 4 4 5 8 8 9 12 13 13 11 9 8 7 6 5 5 5 5 5 5 6
7 4 4 4 3 3 4 3 2 2 1 3 5 8 12 12 5 5 3 2 4 10 12 12 13 14 14 14 14 10 6 3 5 9 15 16 15 16 16 17 17 17 16 15 15 13 12 12 13 13 12 11 10 9 8 8 9 10 11 11 11 11 10 8 8 6 4 4 5 5 7 10 12 12 10 9 8 8 8 10 9 8 7 7 7 8
4 3 3 4 3 2 4 4 1 1 1 3 6 10 13 8 5 5 3 3 4 10 13 14 15 14 14 14 12 7 5 7 9 12 15 15 15 16 16 17 18 19 19 19 18 17 16 15 15 15 14 13 11 10 9 8 7 7 9 11 13 15 15 14 15 13 10 9 8 7 7 8 9 10 9 9 10 10 10 12 12 12 12 12 12 13
3 3 3 2 2 2 2 3 2 1 2 6 6 11 13 5 3 1 2 5 10 11 11 14 14 13 13 13 12 11 12 13 13 14 14 14 16 17 17 17 18 19 22 22 20 18 18 18 19 19 18 17 16 15 14 13 12 11 10 10 11 12 13 14 16 17 16 14 13 12 12 11 11 11 11 11 11 11 12 12 13 15 15 16 17 18
1 1 2 2 2 2 2 3 3 1 5 6 4 8 10 5 3 1 4 8 11 11 12 14 14 13 12 13 14 14 15 15 15 16 16 16 17 18 19 19 19 20 22 24 23 21 18 18 19 20 21 20 21 20 19 18 18 16 15 14 13 13 13 13 14 16 16 15 15 15 15 15 15 14 14 14 13 13 14 14 14 16 17 19 20 21
2 1 1 1 1 2 2 3 2 2 7 12 10 6 5 7 7 7 8 9 11 12 13 13 12 12 10 11 13 14 15 17 17 18 19 19 20 21 22 23 23 23 23 23 24 23 21 20 20 21 21 20 21 22 22 21 21 21 20 18 17 15 15 15 15 16 17 17 17 17 18 18 18 18 18 17 16 16 17 16 15 16 17 20 21 22
3 1 2 2 3 4 3 3 5 8 13 19 19 14 11 12 12 12 10 10 11 11 11 10 10 10 10 11 13 14 16 18 19 19 20 21 21 22 23 24 25 26 26 26 26 26 26 26 26 25 24 22 20 20 21 21 22 23 23 22 21 20 19 18 17 18 18 17 17 18 19 20 21 21 21 20 19 19 19 19 19 19 20 20 22 24
5 5 3 3 4 6 7 6 6 10 14 16 15 15 14 13 13 13 11 10 10 9 8 9 10 11 13 14 16 17 18 19 20 20 21 21 22 22 23 24 25 25 25 26 26 26 27 28 30 31 30 28 25 23 21 19 18 19 20 20 21 22 21 21 21 21 20 19 18 17 17 19 20 21 21 21 21 21 21 21 21 21 21 21 22 23
6 8 6 3 2 4 5 4 3 7 13 15 14 13 15 14 13 12 11 10 10 9 8 10 11 12 14 15 16 18 19 19 20 21 21 21 22 23 24 25 26 25 25 25 25 26 26 26 28 31 32 33 32 30 27 24 20 17 17 17 17 17 17 18 18 19 20 20 20 19 18 18 19 19 19 19 20 21 21 21 21 22 21 21 22 22
3 5 3 2 3 3 5 1 3 5 9 14 16 13 14 13 11 11 10 8 9 9 10 12 13 13 14 13 13 14 16 16 16 18 19 20 21 22 23 24 25 25 25 26 26 26 26 27 28 30 31 32 33 32 32 31 28 25 23 22 20 19 17 17 17 17 17 18 19 20 20 20 20 20 20 20 20 20 21 21 22 23 23 22 22 21
1 3 1 2 4 3 2 4 8 2 2 11 17 14 12 11 10 10 10 10 11 11 11 12 12 12 12 11 11 12 14 15 16 17 19 20 20 21 22 23 24 24 25 26 27 26 26 27 28 29 30 31 31 31 31 33 34 33 31 30 29 27 25 23 22 21 20 19 18 18 18 18 19 19 19 19 19 19 19 20 21 22 23 21 19 18
2 1 1 3 3 1 2 2 5 2 3 9 15 13 11 12 12 13 14 13 11 11 11 12 12 12 11 10 10 12 14 17 19 20 22 23 24 24 26 26 26 27 27 27 27 28 28 27 28 29 31 32 32 31 31 32 33 34 34 34 34 33 32 31 29 28 26 25 23 21 20 19 18 17 17 17 18 18 19 18 19 20 20 19 18 17
4 3 2 4 3 2 2 1 3 3 1 4 9 10 11 13 14 14 13 10 9 9 10 12 13 13 12 11 11 14 16 19 22 24 26 28 28 29 30 31 31 32 33 32 32 32 32 31 30 31 32 33 32 31 31 31 31 32 32 32 32 33 33 33 32 31 30 30 29 27 25 23 21 20 20 19 19 20 20 20 19 19 19 19 20 20
Wind_Direction
186 192 256 223 221 229 228 205 207 225 228 239 234 202 240 258 289 288 288 277 159 141 197 198 167 168 211 191 121 161 170 154 149 152 157 163 168 172 174 177 179 183 185 183 180 176 171 168 166 165 167 171 171 169 168 170 173 177 177 179 181 182 187 188 185 185 189 190 184 182 181 181 188 197 218 233 230 220 205 201 197 195 202 206 210 219
146 187 243 230 221 219 227 222 209 227 237 237 154 8 309 325 290 292 306 329 80 114 237 141 116 151 232 241 135 144 156 170 160 156 164 169 175 179 177 178 180 184 188 186 182 178 173 170 167 169 174 178 179 178 182 185 184 182 180 179 177 176 178 175 169 170 174 179 179 179 181 184 187 191 210 219 215 233 228 216 207 202 207 208 210 217
70 231 244 236 225 216 250 255 214 213 199 204 70 59 310 293 296 300 315 347 26 91 349 141 134 189 230 247 191 160 167 186 177 168 172 174 177 180 177 178 180 184 189 188 185 180 174 172 171 175 180 184 186 185 190 191 185 181 180 179 177 174 170 164 160 159 162 172 181 184 185 188 190 185 190 196 190 211 225 222 214 209 215 224 226 224
232 242 242 236 208 163 255 254 182 184 64 86 329 77 285 279 336 302 312 341 10 83 149 150 133 246 266 300 255 189 175 179 183 179 177 177 179 181 181 180 178 182 189 190 188 183 176 176 179 182 184 186 189 191 193 190 185 182 181 182 180 173 166 161 161 161 163 168 175 184 189 192 192 185 187 198 203 211 217 213 208 205 206 220 231 227
238 253 260 253 193 167 205 235 153 97 353 293 228 194 224 199 189 246 300 338 352 11 78 82 33 323 332 26 321 251 176 171 184 185 186 188 186 184 183 181 179 180 186 189 188 184 179 181 186 187 187 188 191 195 196 191 187 184 184 185 182 175 170 168 167 168 170 170 177 189 190 190 193 190 190 198 201 202 205 199 191 190 189 201 218 220
250 256 263 264 204 172 173 217 191 133 35 313 257 213 209 180 202 254 304 9 26 347 332 78 43 298 321 351 291 315 140 176 189 186 195 199 191 185 183 182 182 181 183 188 186 184 183 184 188 190 191 191 194 197 199 196 192 188 186 185 182 180 180 179 175 176 181 183 190 200 200 201 204 199 195 198 193 185 188 187 179 176 178 188 203 214
254 247 228 183 166 148 146 191 211 149 115 312 249 208 201 167 174 245 261 95 90 275 280 89 127 254 316 321 286 326 127 184 204 207 209 199 189 190 190 186 184 183 183 186 185 186 187 186 189 192 193 194 195 197 200 200 198 193 189 185 184 185 188 189 184 182 188 194 203 217 219 217 219 215 203 190 177 172 177 180 178 176 177 186 198 211
274 269 175 159 151 135 143 194 210 146 120 230 242 198 187 143 129 167 147 141 212 239 314 11 103 151 300 289 280 324 97 171 198 213 224 203 194 194 195 192 186 183 184 185 187 189 190 189 190 193 195 197 197 197 201 203 202 198 193 189 188 190 193 197 193 189 193 199 207 222 224 219 226 229 204 175 166 168 172 177 182 184 184 191 199 206
282 249 189 178 155 151 188 214 201 142 131 239 238 207 219 170 146 137 109 114 280 359 321 322 57 99 272 280 310 354 36 296 212 210 215 204 199 196 196 197 189 185 187 189 191 191 191 191 191 194 197 199 199 199 203 207 206 203 198 194 193 194 198 202 198 195 197 199 205 220 221 217 224 219 189 170 167 169 169 171 179 186 190 194 196 196
263 236 209 160 132 195 216 221 184 145 190 248 232 230 266 213 127 103 94 103 42 44 260 275 348 105 265 288 320 1 37 292 247 230 238 200 194 195 197 196 189 186 188 192 194 192 192 193 193 195 198 201 203 203 206 210 211 209 205 202 200 200 202 204 202 200 198 192 197 215 220 221 219 201 179 172 173 171 166 164 166 172 175 180 182 185
280 262 225 156 166 198 195 215 193 168 202 250 318 307 330 359 24 55 73 86 65 8 255 258 190 122 295 287 270 278 253 264 231 124 313 191 180 185 190 188 184 185 189 193 195 194 195 196 196 198 201 203 204 204 208 212 214 214 212 208 205 203 203 205 204 202 198 190 193 210 219 221 212 192 182 180 178 171 164 161 159 157 156 155 160 169
326 298 238 197 191 169 119 291 281 201 162 68 43 77 60 345 3 24 358 43 87 255 264 262 159 108 130 264 260 273 285 288 224 143 178 161 151 158 167 171 176 181 187 191 192 195 197 199 200 201 204 206 205 205 209 213 216 216 215 212 205 200 199 202 202 202 201 195 196 208 215 214 203 191 190 187 179 173 166 162 158 155 155 152 148 150
336 270 265 285 205 153 104 356 318 350 42 78 86 84 87 341 13 19 314 357 159 240 251 254 309 91 216 244 255 279 299 298 232 148 143 128 129 136 146 155 165 174 180 183 186 192 198 202 205 207 208 209 208 208 210 213 214 214 213 209 203 200 200 201 201 203 204 198 198 206 208 205 200 198 200 193 182 176 168 161 156 151 151 152 150 147
324 305 306 339 284 167 129 133 265 313 36 119 156 120 115 120 71 294 270 316 263 264 269 262 277 8 288 273 234 257 295 291 123 122 120 119 120 122 130 142 150 156 159 162 168 175 185 195 203 210 213 213 212 209 208 209 209 209 210 207 203 203 204 200 196 197 202 199 198 200 200 199 202 208 210 202 189 179 170 160 153 146 141 144 148 149
136 321 283 201 259 195 154 165 178 169 130 183 172 138 139 147 142 203 214 192 228 270 298 314 7 162 213 264 240 258 323 98 107 108 110 109 110 113 117 125 129 130 133 141 150 155 165 175 184 195 204 211 213 212 210 209 208 208 208 204 201 201 200 197 191 191 203 206 199 195 194 199 211 218 219 210 196 181 170 162 153 146 139 137 141 146
147 254 255 249 241 177 166 187 160 117 69 262 134 99 159 181 153 161 179 177 172 137 309 310 270 209 195 261 291 35 67 102 107 112 111 107 108 110 110 111 113 115 118 128 137 143 155 162 164 174 179 194 209 215 216 215 214 213 211 206 204 207 213 219 215 209 210 209 200 194 190 196 213 222 222 213 201 182 172 168 158 149 142 137 137 140
126 251 277 328 346 171 192 205 167 124 156 279 32 93 237 176 129 119 218 200 100 100 283 268 253 298 328 309 345 53 87 106 109 117 118 117 119 116 117 118 116 116 118 123 130 134 143 148 144 150 158 174 197 212 220 222 222 220 220 219 217 221 229 230 226 217 208 203 198 192 186 192 209 220 222 216 204 186 175 170 161 152 148 143 138 137
135 255 290 5 26 327 324 302 161 130 134 115 68 211 218 61 87 106 123 355 51 107 270 266 186 323 13 304 335 22 21 42 103 122 124 124 125 125 128 129 125 124 122 124 128 130 134 135 128 125 133 160 187 203 215 222 226 227 229 230 227 228 231 229 228 218 203 198 194 188 187 194 206 215 219 219 211 195 181 173 168 163 157 152 147 143
120 89 293 341 38 322 340 20 25 336 39 123 173 175 97 84 4 64 119 140 103 161 274 290 107 43 102 260 323 353 331 297 114 128 132 132 133 134 134 132 128 126 121 119 120 121 122 121 115 112 113 139 174 188 197 206 221 228 232 232 229 229 231 231 229 217 203 197 192 188 193 200 207 213 215 218 218 205 190 180 177 173 165 160 155 151
102 111 270 306 343 335 352 37 45 325 334 30 65 31 53 134 157 158 148 147 145 163 245 294 21 323 235 278 320 312 297 256 179 125 97 110 128 132 130 126 125 123 119 117 116 115 117 118 118 116 111 122 150 163 168 177 198 215 224 228 227 226 228 229 224 214 206 198 191 194 199 200 207 213 212 215 218 212 199 189 186 182 177 171 162 156
57 93 203 292 332 35 15 7 51 348 332 353 357 347 355 87 103 115 117 97 121 137 173 140 37 290 259 261 286 290 343 102 128 104 73 97 119 126 126 125 124 125 125 123 121 120 122 125 129 126 119 125 139 145 151 165 183 202 216 221 220 221 223 222 218 213 207 198 194 202 205 201 206 212 212 213 217 215 206 198 196 192 188 185 175 166
79 114 154 287 347 47 232 268 350 338 268 186 302 304 155 130 111 106 12 315 100 128 159 145 140 270 267 258 269 266 119 110 114 110 109 129 135 135 134 131 126 125 126 126 126 128 129 130 131 131 130 136 145 148 149 160 173 188 208 216 217 219 220 218 216 213 210 204 201 207 209 207 211 215 213 212 216 217 210 204 204 201 197 197 191 179
129 103 97 148 241 238 249 253 30 13 44 97 57 31 88 100 107 123 174 252 62 85 153 112 112 265 263 262 272 278 77 71 98 118 127 134 141 140 136 132 124 119 121 126 133 137 140 140 139 139 141 146 151 154 156 165 172 177 193 208 215 219 218 217 218 216 212 209 207 209 212 213 215 218 215 215 221 222 215 209 208 207 205 202 198 191
63 82 65 326 290 305 308 338 44 32 44 58 15 12 48 24 75 140 168 179 120 108 166 104 97 260 274 283 268 116 93 72 78 107 115 110 112 118 122 122 116 112 114 122 132 138 141 143 145 147 149 154 159 162 162 167 175 182 190 198 208 216 215 213 216 216 214 214 212 214 217 216 216 217 214 214 221 223 218 214 212 211 210 208 204 199
44 105 82 54 360 344 347 355 3 6 22 44 330 355 32 26 30 59 50 67 85 168 152 122 168 232 263 298 322 91 93 83 81 97 106 105 104 110 117 119 118 116 116 121 127 130 128 126 129 140 150 156 160 166 167 167 176 186 194 201 206 211 213 212 213 214 213 214 216 221 225 223 219 217 214 215 218 218 217 215 213 213 213 211 210 206
102 134 105 104 132 254 311 287 297 330 344 339 338 1 21 32 40 52 50 60 81 218 93 116 177 230 293 348 34 60 84 92 95 105 112 116 122 128 133 133 134 131 131 136 138 137 132 121 116 123 139 154 158 163 168 170 177 184 191 202 206 209 211 212 214 214 211 210 216 226 229 225 221 219 218 218 218 217 217 214 211 213 214 216 215 212
88 84 102 124 151 177 191 216 242 14 20 337 333 352 6 22 51 83 87 86 149 113 38 209 170 117 349 358 17 16 56 93 103 112 121 126 131 141 147 148 149 148 150 155 155 154 146 131 122 118 125 145 157 164 168 171 178 185 191 198 203 208 211 210 211 213 213 213 220 229 227 221 220 218 215 211 208 210 211 209 209 211 212 215 217 218
84 48 108 120 140 183 182 209 316 37 45 346 336 345 355 17 52 77 88 161 165 106 356 289 92 80 356 354 17 3 12 45 37 54 110 136 136 140 148 152 155 162 175 180 175 171 162 145 138 131 127 136 149 162 170 172 177 185 192 196 199 206 211 209 208 212 216 217 221 226 224 219 218 217 215 207 201 202 203 203 207 212 212 215 219 223
103 113 198 118 95 111 91 46 32 54 52 25 16 356 346 38 81 91 97 191 140 120 183 219 93 87 358 355 20 14 24 48 44 49 76 111 125 134 140 142 142 153 175 187 188 186 178 163 154 150 150 147 146 155 164 172 180 185 191 196 199 204 208 209 209 213 218 221 224 229 231 227 221 221 231 231 221 216 214 212 214 216 217 223 226 228
95 158 208 102 79 32 35 47 50 53 48 36 27 7 0 65 89 89 71 64 89 105 147 127 92 78 21 346 348 7 48 65 62 62 69 75 83 93 101 111 129 148 163 172 178 180 180 176 169 165 166 167 167 163 158 162 179 187 193 197 198 201 204 206 207 208 211 215 218 222 227 231 231 230 235 239 238 236 235 228 224 222 224 230 232 232
69 159 230 86 72 350 357 49 53 61 75 58 23 3 8 42 52 47 27 34 70 85 92 89 80 52 356 350 12 44 60 61 56 53 56 62 69 73 68 64 69 191 188 170 157 156 159 167 175 176 174 174 177 175 167 163 168 178 190 196 196 194 192 192 191 183 177 179 179 179 187 199 208 211 216 223 224 218 212 211 214 218 224 227 226 225
71 106 15 69 75 302 321 53 48 62 76 57 22 359 357 27 60 52 22 21 68 119 88 65 70 31 322 346 39 58 59 57 48 38 42 53 63 67 64 57 54 70 194 179 150 142 138 144 162 172 173 172 175 178 180 184 180 169 179 192 197 194 185 179 175 167 159 152 148 151 156 165 177 185 193 201 199 191 189 192 199 208 215 217 216 218
96 105 85 88 95 282 296 61 65 59 52 24 340 335 335 53 88 67 34 21 26 92 101 82 97 250 305 349 47 55 54 57 50 43 48 54 56 58 57 55 57 66 89 107 118 130 135 134 134 139 151 165 180 191 192 187 180 173 178 190 197 194 184 179 173 166 163 158 155 162 166 171 181 187 194 200 200 197 196 197 203 209 212 214 217 221
82 103 129 126 116 257 290 36 60 51 46 256 273 307 2 101 90 76 49 22 19 40 80 101 103 356 351 27 50 57 65 66 61 57 57 55 53 52 50 51 57 64 75 88 100 107 112 115 114 112 115 127 156 189 194 191 193 187 180 186 190 189 187 191 187 183 193 205 215 213 200 194 195 196 197 198 194 192 193 195 198 202 204 206 212 218
128 120 142 109 115 182 305 49 58 281 215 199 250 352 104 109 99 89 69 33 28 39 53 61 36 0 19 37 41 74 93 77 67 62 57 51 51 50 46 44 45 46 51 61 86 109 106 103 105 101 96 97 102 136 172 180 185 182 176 181 186 188 193 197 200 212 223 226 223 217 211 206 203 200 199 197 194 195 198 200 203 208 212 214 217 225
143 143 158 134 120 149 95 81 141 220 210 140 359 2 85 94 85 80 62 25 13 22 41 50 21 0 17 28 33 60 113 80 61 55 51 46 45 46 44 41 39 38 37 36 40 66 86 100 107 87 72 88 98 105 123 138 165 184 189 194 193 192 200 204 210 218 209 195 194 203 207 212 211 204 197 194 196 198 199 202 208 215 221 226 229 235
142 137 156 173 171 143 137 152 177 184 147 14 335 317 111 99 281 110 95 35 349 2 30 50 19 4 10 16 22 28 76 72 49 38 35 36 35 36 38 36 36 38 36 29 26 27 15 347 331 339 330 333 91 94 90 79 92 165 182 191 189 189 207 223 230 217 206 203 199 194 197 209 213 208 205 205 201 190 182 184 193 202 210 219 227 235
139 162 174 184 203 105 113 139 138 161 208 233 267 269 292 320 263 154 118 62 327 349 15 46 31 7 2 359 8 18 29 51 33 10 14 17 13 15 21 21 24 26 24 20 16 15 16 9 358 344 319 301 299 299 330 9 17 120 129 153 179 188 204 218 213 195 207 217 213 208 213 220 216 211 215 226 231 216 200 193 197 202 206 214 223 234
52 84 132 142 156 108 115 145 167 180 214 235 254 281 322 335 322 120 93 41 311 335 357 25 32 22 17 10 15 29 41 45 309 335 3 3 352 351 353 352 359 1 360 3 1 359 4 4 360 356 346 331 318 304 291 291 291 273 257 280 256 216 207 210 211 197 192 200 202 213 226 222 215 215 221 232 238 234 244 272 268 236 224 232 244 250
27 25 64 98 129 138 126 125 145 169 211 248 260 299 329 339 360 85 105 257 313 0 20 43 46 38 36 33 35 48 58 22 316 335 356 357 349 346 342 336 337 337 336 337 336 334 338 341 341 340 338 336 336 332 318 301 292 272 254 257 266 253 235 231 240 241 229 209 198 204 210 204 206 215 224 232 237 241 259 276 274 261 259 271 279 284
12 12 47 101 109 104 111 105 106 148 288 277 294 331 342 352 48 87 186 230 27 37 43 48 45 38 33 30 32 30 4 349 339 338 346 345 340 341 339 333 326 323 324 326 323 320 316 314 319 321 318 314 312 318 322 315 305 282 257 250 253 251 248 248 250 252 257 254 241 229 224 212 205 207 211 221 233 247 262 273 275 275 280 284 287 292
7 358 19 57 34 22 106 113 110 95 315 285 304 358 13 40 112 121 142 75 53 44 35 30 28 24 17 12 9 355 340 336 331 329 330 327 324 323 325 327 323 316 314 314 314 316 311 304 304 305 304 302 297 297 304 303 294 286 275 262 251 245 246 247 247 250 256 259 255 251 250 245 233 226 226 230 238 249 260 268 274 276 279 285 288 290
12 12 21 7 346 20 60 73 101 106 334 328 331 5 23 68 139 96 72 63 47 34 22 15 14 13 6 356 350 342 332 326 322 320 317 313 312 309 307 312 314 309 307 305 304 306 305 300 298 296 295 295 290 288 292 295 293 289 281 272 264 257 254 250 245 245 248 252 253 254 253 250 245 243 246 250 256 260 260 262 265 267 271 277 281 283
9 54 96 300 328 49 54 47 82 82 41 59 83 92 78 86 74 51 49 44 32 24 15 6 6 9 3 350 339 331 324 321 318 315 312 308 305 302 299 299 300 298 296 295 293 294 295 293 293 292 289 288 286 283 282 284 288 288 283 276 270 264 262 261 257 253 250 249 250 251 253 254 255 255 259 264 267 263 256 253 256 261 264 268 273 277
334 317 126 95 65 85 95 73 85 88 76 77 88 96 89 73 52 42 45 38 27 20 11 5 2 356 347 339 332 325 321 320 316 313 313 310 306 303 298 295 295 294 294 292 289 287 287 287 288 288 286 284 284 281 278 278 280 282 281 278 274 268 265 265 266 263 256 250 248 250 253 256 259 261 263 263 261 258 256 258 262 265 264 265 269 273
354 6 54 100 109 92 67 47 72 91 80 77 83 79 65 53 41 36 37 27 14 5 354 349 344 337 333 329 325 322 321 319 315 311 309 307 305 304 301 297 295 295 295 294 291 289 287 284 283 282 281 280 280 280 279 277 277 278 278 277 275 271 267 263 261 260 256 251 249 249 252 253 254 256 257 256 256 257 259 261 264 265 263 262 264 266
8 27 47 85 108 100 74 20 24 93 75 61 62 55 40 35 31 24 19 10 1 351 340 335 332 329 327 324 321 320 318 316 314 309 306 305 302 300 299 297 296 296 296 294 294 293 291 287 282 280 279 277 276 276 276 273 269 268 269 268 266 263 260 255 252 251 249 248 247 247 248 249 249 250 251 253 255 256 257 259 261 261 261 260 257 258
353 29 48 61 38 105 148 344 356 123 96 52 42 38 29 27 22 15 12 2 348 339 332 330 330 328 329 329 327 323 317 313 312 307 303 304 302 300 299 296 294 294 293 291 290 289 287 284 282 281 280 277 275 274 274 272 267 263 263 264 263 261 257 253 250 246 242 241 241 241 241 241 243 246 247 250 251 251 252 255 257 258 261 259 255 254
17 27 49 104 45 57 144 357 8 99 139 20 25 32 28 21 12 4 359 349 344 341 332 328 328 327 328 326 318 311 307 304 303 302 301 301 300 299 297 294 292 290 287 285 284 282 279 278 278 278 279 278 277 277 276 273 270 266 264 265 267 268 266 263 259 255 251 246 241 238 236 236 239 242 244 247 248 247 251 256 257 257 258 257 253 253
60 44 21 79 58 22 238 326 22 70 261 347 12 19 10 358 350 345 345 345 348 348 335 327 324 319 316 311 303 301 301 299 298 298 298 298 298 296 294 292 289 286 283 280 278 276 273 272 271 271 272 273 275 276 275 272 270 268 266 266 267 269 270 269 267 264 261 258 255 250 245 242 242 244 245 246 247 248 254 259 257 252 251 251 250 251
88 137 134 124 148 193 200 138 65 91 210 343 2 358 347 343 340 342 348 350 348 341 330 325 323 319 316 312 306 306 306 304 303 302 300 298 296 294 292 291 288 285 282 280 278 276 274 273 271 271 270 271 272 272 270 269 268 268 268 267 266 265 266 267 267 266 263 262 261 260 259 257 253 252 252 252 253 256 258 258 253 248 247 248 247 245
Height
1474 1478 1480 1479 1478 1476 1476 1478 1478 1478 1479 1479 1480 1480 1478 1480 1477 1468 1461 1452 1450 1460 1464 1462 1465 1467 1466 1469 1472 1473 1474 1473 1473 1476 1476 1478 1479 1480 1481 1482 1484 1487 1490 1492 1494 1497 1499 1501 1503 1505 1507 1508 1509 1510 1512 1514 1516 1518 1520 1522 1523 1524 1526 1527 1528 1528 1528 1529 1530 1531 1531 1531 1531 1532 1533 1533 1533 1533 1534 1535 1535 1536 1537 1538 1538 1539
1474 1480 1479 1474 1473 1472 1473 1475 1477 1478 1478 1477 1478 1477 1476 1478 1474 1464 1460 1455 1451 1457 1464 1463 1465 1468 1465 1466 1470 1472 1476 1477 1473 1474 1476 1477 1478 1478 1478 1480 1482 1486 1489 1492 1495 1497 1499 1501 1503 1505 1507 1508 1509 1510 1512 1514 1516 1518 1520 1522 1523 1524 1526 1527 1528 1528 1528 1529 1529 1529 1530 1530 1531 1532 1532 1532 1532 1532 1533 1534 1535 1536 1537 1538 1539 1539
1479 1479 1474 1469 1470 1472 1473 1474 1476 1477 1474 1473 1475 1477 1477 1476 1471 1464 1459 1457 1455 1458 1465 1466 1465 1468 1467 1466 1468 1468 1470 1472 1470 1469 1471 1474 1476 1478 1478 1479 1481 1485 1488 1491 1494 1496 1498 1500 1502 1504 1506 1507 1509 1510 1512 1514 1516 1518 1520 1521 1523 1524 1525 1527 1528 1528 1529 1528 1529 1529 1529 1529 1530 1530 1531 1531 1532 1532 1532 1533 1534 1536 1537 1538 1538 1539
1482 1475 1466 1466 1470 1474 1475 1475 1475 1474 1471 1472 1474 1477 1479 1476 1473 1470 1462 1458 1458 1459 1464 1465 1464 1466 1468 1467 1468 1466 1466 1468 1470 1470 1470 1471 1472 1473 1475 1476 1479 1482 1485 1489 1492 1495 1498 1500 1501 1503 1505 1507 1508 1510 1511 1513 1515 1517 1519 1521 1522 1523 1525 1526 1527 1528 1528 1528 1528 1529 1529 1529 1529 1529 1530 1530 1531 1532 1532 1534 1534 1535 1536 1537 1538 1539
1477 1467 1463 1465 1469 1473 1475 1474 1473 1472 1472 1473 1472 1474 1477 1474 1472 1471 1466 1461 1460 1461 1461 1464 1468 1467 1465 1468 1468 1467 1467 1469 1471 1473 1473 1473 1471 1472 1473 1474 1476 1477 1480 1485 1488 1492 1495 1497 1499 1502 1504 1506 1507 1509 1511 1513 1515 1517 1519 1520 1522 1523 1524 1525 1526 1527 1527 1527 1528 1528 1529 1529 1529 1529 1530 1530 1531 1531 1532 1534 1535 1535 1536 1536 1537 1538
1473 1465 1464 1467 1468 1470 1472 1471 1470 1470 1474 1475 1470 1469 1471 1472 1471 1470 1469 1468 1470 1472 1465 1466 1480 1478 1466 1465 1468 1468 1470 1471 1472 1472 1472 1473 1473 1474 1474 1474 1475 1476 1479 1482 1485 1489 1492 1495 1497 1500 1503 1504 1506 1509 1511 1513 1515 1517 1519 1520 1521 1522 1523 1524 1525 1526 1526 1526 1527 1528 1529 1529 1530 1530 1531 1531 1531 1532 1533 1534 1534 1535 1535 1536 1537 1537
1467 1462 1463 1466 1466 1467 1468 1469 1468 1469 1475 1478 1470 1466 1467 1470 1471 1471 1471 1473 1478 1480 1470 1467 1482 1485 1473 1465 1465 1468 1471 1471 1472 1472 1471 1472 1474 1474 1474 1473 1474 1475 1478 1482 1485 1488 1490 1493 1496 1498 1501 1503 1505 1508 1510 1512 1514 1517 1518 1520 1521 1522 1523 1524 1525 1525 1525 1526 1527 1528 1530 1531 1531 1531 1532 1533 1533 1533 1533 1533 1534 1534 1535 1535 1536 1537
1463 1462 1463 1464 1464 1465 1467 1468 1466 1466 1473 1476 1466 1463 1467 1468 1470 1472 1471 1474 1475 1475 1472 1469 1474 1484 1482 1469 1465 1469 1470 1470 1471 1472 1472 1472 1472 1472 1473 1474 1474 1474 1476 1480 1484 1487 1489 1491 1494 1497 1499 1501 1504 1507 1509 1511 1513 1515 1518 1519 1520 1521 1522 1523 1524 1525 1525 1526 1527 1529 1531 1532 1533 1533 1534 1534 1534 1533 1533 1533 1534 1534 1535 1535 1536 1537
1462 1463 1462 1461 1463 1465 1465 1464 1463 1464 1468 1467 1461 1462 1465 1464 1468 1468 1469 1473 1475 1476 1480 1477 1474 1485 1488 1473 1467 1469 1468 1468 1469 1468 1469 1469 1469 1471 1472 1473 1474 1474 1475 1478 1481 1485 1488 1491 1493 1496 1498 1501 1504 1506 1508 1509 1511 1514 1517 1518 1519 1520 1521 1523 1524 1525 1525 1526 1527 1529 1532 1533 1534 1535 1535 1534 1534 1534 1533 1533 1534 1534 1534 1535 1535 1536
1461 1461 1459 1459 1463 1463 1461 1460 1460 1462 1464 1461 1460 1462 1462 1463 1465 1466 1469 1471 1475 1483 1486 1481 1478 1487 1491 1476 1469 1471 1468 1467 1466 1465 1466 1466 1467 1470 1470 1473 1474 1475 1477 1479 1481 1485 1488 1491 1494 1496 1499 1501 1503 1505 1507 1509 1511 1513 1515 1517 1518 1519 1521 1522 1523 1524 1525 1526 1526 1529 1531 1532 1534 1535 1535 1535 1535 1534 1534 1534 1534 1534 1534 1535 1535 1536
1459 1457 1456 1457 1458 1458 1457 1458 1458 1460 1461 1459 1461 1463 1463 1465 1463 1466 1472 1472 1480 1491 1487 1481 1479 1484 1492 1481 1470 1470 1468 1464 1462 1464 1466 1464 1467 1471 1471 1473 1475 1476 1478 1480 1483 1486 1489 1492 1494 1497 1499 1501 1503 1505 1507 1509 1510 1512 1514 1515 1517 1518 1520 1521 1523 1524 1524 1525 1526 1528 1530 1531 1533 1534 1535 1535 1535 1535 1534 1534 1534 1534 1534 1535 1535 1536
1458 1457 1456 1453 1452 1453 1455 1457 1458 1458 1458 1460 1463 1465 1469 1473 1470 1473 1479 1478 1490 1498 1487 1482 1480 1482 1491 1484 1470 1468 1467 1464 1463 1463 1465 1465 1467 1471 1472 1474 1476 1477 1479 1480 1484 1487 1490 1493 1495 1497 1499 1501 1503 1505 1506 1507 1509 1510 1512 1514 1515 1517 1518 1520 1522 1523 1523 1524 1525 1527 1529 1531 1532 1533 1534 1535 1535 1535 1534 1534 1534 1534 1534 1535 1535 1536
1459 1456 1456 1453 1451 1452 1455 1460 1460 1458 1458 1462 1466 1468 1476 1485 1487 1489 1491 1490 1495 1495 1485 1483 1481 1483 1488 1478 1468 1468 1465 1464 1464 1463 1464 1465 1466 1470 1472 1474 1477 1478 1480 1481 1484 1487 1490 1493 1494 1497 1498 1500 1502 1503 1505 1506 1507 1509 1511 1513 1514 1514 1516 1517 1520 1522 1522 1523 1524 1526 1529 1531 1532 1533 1534 1535 1536 1536 1535 1534 1534 1534 1534 1535 1535 1536
1465 1459 1455 1454 1453 1451 1454 1460 1464 1462 1461 1463 1467 1470 1478 1490 1499 1502 1502 1501 1499 1490 1485 1485 1482 1485 1487 1475 1468 1468 1465 1464 1465 1465 1466 1464 1467 1471 1473 1476 1478 1479 1481 1483 1486 1488 1490 1493 1494 1496 1497 1499 1500 1501 1503 1505 1506 1509 1510 1511 1512 1512 1513 1513 1515 1520 1522 1523 1523 1526 1528 1530 1531 1533 1534 1536 1536 1536 1536 1535 1535 1534 1534 1535 1535 1536
1473 1469 1458 1455 1455 1451 1452 1456 1459 1460 1460 1462 1463 1466 1472 1479 1490 1498 1498 1498 1498 1492 1487 1485 1483 1487 1486 1475 1468 1467 1467 1467 1466 1468 1468 1467 1470 1472 1474 1478 1479 1480 1482 1483 1486 1488 1490 1492 1494 1495 1496 1498 1500 1501 1502 1504 1505 1507 1507 1508 1509 1510 1512 1513 1517 1521 1522 1522 1522 1524 1527 1530 1531 1533 1534 1535 1536 1536 1536 1536 1536 1535 1535 1535 1536 1537
1472 1470 1457 1452 1452 1450 1451 1452 1452 1457 1461 1462 1461 1465 1469 1468 1473 1486 1491 1491 1492 1493 1490 1486 1484 1483 1478 1471 1468 1468 1470 1469 1469 1471 1471 1472 1473 1474 1477 1480 1481 1483 1484 1484 1486 1488 1490 1492 1493 1495 1496 1497 1498 1499 1501 1502 1503 1504 1504 1505 1507 1508 1510 1512 1515 1517 1519 1520 1520 1521 1525 1528 1531 1532 1533 1534 1535 1536 1536 1536 1536 1535 1535 1535 1536 1537
1471 1468 1456 1452 1452 1450 1451 1451 1449 1456 1462 1463 1464 1466 1465 1462 1464 1478 1491 1490 1490 1495 1495 1489 1486 1481 1477 1474 1470 1471 1473 1472 1472 1474 1475 1476 1477 1477 1480 1483 1484 1485 1486 1487 1488 1489 1491 1492 1493 1494 1495 1496 1497 1497 1498 1499 1501 1502 1502 1504 1506 1507 1507 1507 1509 1511 1515 1518 1519 1520 1523 1526 1529 1531 1532 1533 1534 1534 1535 1536 1535 1535 1535 1535 1536 1537
1466 1466 1459 1455 1456 1453 1450 1450 1449 1451 1454 1461 1466 1464 1462 1464 1466 1473 1487 1494 1497 1501 1496 1489 1487 1487 1488 1485 1477 1475 1477 1476 1476 1476 1477 1479 1479 1480 1483 1484 1485 1486 1487 1489 1489 1490 1492 1492 1493 1493 1493 1494 1495 1496 1496 1497 1499 1500 1501 1503 1504 1504 1504 1505 1507 1509 1513 1516 1517 1519 1522 1524 1526 1528 1530 1532 1532 1533 1534 1534 1534 1534 1534 1534 1535 1536
1460 1466 1464 1457 1457 1455 1450 1452 1456 1453 1451 1455 1459 1458 1460 1470 1474 1475 1485 1494 1500 1504 1497 1490 1492 1493 1493 1490 1483 1480 1481 1480 1479 1478 1478 1478 1478 1479 1481 1483 1484 1485 1486 1487 1487 1488 1489 1490 1491 1492 1493 1494 1494 1495 1495 1496 1498 1498 1499 1501 1501 1502 1503 1504 1506 1508 1511 1514 1515 1517 1521 1522 1523 1525 1528 1529 1531 1531 1532 1532 1533 1533 1534 1534 1534 1535
1458 1466 1469 1460 1456 1457 1455 1458 1467 1466 1457 1453 1455 1457 1460 1467 1473 1476 1482 1487 1492 1501 1501 1495 1497 1496 1491 1489 1486 1482 1480 1479 1479 1479 1478 1479 1478 1477 1478 1479 1480 1481 1482 1483 1485 1487 1488 1489 1491 1492 1494 1495 1494 1495 1495 1496 1497 1496 1497 1498 1499 1500 1502 1503 1505 1507 1509 1512 1514 1515 1518 1520 1521 1522 1525 1527 1529 1529 1530 1530 1531 1532 1533 1533 1533 1534
1458 1465 1469 1463 1457 1461 1465 1466 1470 1470 1465 1462 1462 1463 1464 1467 1472 1475 1480 1483 1485 1495 1501 1501 1504 1502 1492 1488 1486 1481 1478 1477 1478 1479 1480 1481 1480 1479 1479 1479 1479 1481 1482 1483 1485 1487 1489 1491 1492 1494 1495 1496 1495 1496 1496 1496 1496 1495 1495 1496 1497 1499 1501 1502 1504 1507 1509 1510 1512 1514 1516 1517 1518 1520 1523 1526 1527 1528 1529 1529 1530 1531 1532 1533 1533 1533
1459 1464 1467 1468 1464 1466 1469 1466 1464 1463 1464 1466 1466 1467 1467 1468 1472 1478 1485 1486 1482 1487 1494 1497 1504 1504 1493 1488 1485 1480 1478 1477 1477 1479 1480 1481 1481 1481 1481 1481 1481 1482 1482 1484 1485 1487 1490 1492 1494 1495 1495 1496 1496 1496 1497 1496 1496 1496 1496 1496 1498 1500 1501 1503 1505 1507 1509 1510 1512 1514 1516 1518 1519 1521 1523 1525 1526 1527 1528 1528 1529 1531 1532 1532 1533 1533
1457 1461 1465 1469 1468 1467 1467 1465 1463 1462 1461 1463 1466 1469 1470 1469 1470 1476 1484 1486 1484 1488 1489 1490 1498 1499 1491 1487 1484 1479 1478 1477 1477 1478 1480 1482 1483 1482 1483 1483 1483 1483 1483 1485 1487 1489 1491 1493 1494 1495 1495 1496 1496 1497 1497 1497 1497 1497 1497 1497 1499 1500 1502 1504 1505 1506 1509 1511 1513 1515 1516 1518 1520 1522 1524 1526 1526 1527 1528 1528 1529 1530 1531 1531 1532 1532
1457 1463 1467 1470 1468 1464 1462 1462 1462 1462 1463 1466 1470 1471 1471 1472 1472 1473 1476 1478 1482 1489 1490 1492 1500 1498 1488 1485 1483 1479 1478 1478 1478 1478 1479 1482 1484 1484 1485 1485 1485 1485 1486 1487 1489 1491 1492 1493 1494 1495 1496 1496 1496 1497 1497 1497 1497 1498 1498 1498 1499 1500 1502 1504 1504 1506 1509 1511 1513 1515 1516 1517 1518 1519 1521 1523 1524 1526 1527 1528 1529 1530 1530 1531 1531 1531
1460 1467 1470 1474 1476 1473 1471 1470 1469 1468 1470 1472 1475 1474 1473 1474 1473 1474 1476 1476 1480 1487 1487 1490 1499 1496 1488 1486 1484 1479 1478 1478 1479 1479 1480 1482 1484 1486 1486 1487 1488 1488 1488 1489 1491 1492 1493 1494 1494 1495 1496 1497 1497 1497 1497 1497 1498 1498 1498 1499 1499 1500 1501 1502 1503 1504 1506 1509 1512 1513 1515 1516 1516 1517 1518 1519 1522 1524 1526 1527 1529 1530 1530 1530 1530 1530
1462 1468 1469 1474 1482 1485 1484 1483 1481 1479 1477 1476 1476 1476 1476 1476 1474 1475 1479 1479 1483 1487 1485 1487 1494 1492 1487 1487 1485 1481 1480 1480 1480 1481 1482 1484 1485 1486 1487 1488 1489 1489 1490 1491 1492 1493 1494 1495 1495 1495 1496 1497 1498 1498 1498 1498 1498 1498 1498 1499 1499 1500 1501 1502 1504 1504 1504 1507 1509 1511 1514 1516 1516 1516 1516 1517 1520 1523 1525 1526 1528 1529 1529 1529 1529 1529
1464 1469 1470 1472 1477 1480 1482 1482 1479 1478 1479 1479 1478 1477 1478 1480 1478 1477 1481 1483 1485 1486 1485 1487 1489 1489 1490 1491 1489 1486 1483 1482 1482 1482 1483 1485 1486 1486 1487 1487 1488 1489 1490 1491 1493 1494 1495 1495 1496 1496 1497 1498 1498 1499 1499 1499 1499 1499 1499 1499 1499 1500 1501 1503 1506 1506 1506 1507 1508 1510 1513 1515 1515 1515 1516 1516 1518 1520 1523 1525 1527 1528 1529 1529 1529 1528
1465 1470 1472 1473 1475 1477 1478 1478 1477 1478 1480 1481 1480 1479 1480 1481 1479 1478 1481 1484 1484 1486 1490 1491 1489 1492 1498 1497 1494 1491 1487 1485 1486 1485 1484 1485 1486 1487 1487 1487 1488 1489 1490 1491 1493 1494 1495 1495 1496 1496 1497 1498 1499 1499 1500 1500 1500 1500 1500 1500 1500 1501 1502 1503 1505 1506 1507 1508 1509 1510 1511 1512 1513 1515 1518 1519 1519 1519 1519 1521 1524 1527 1529 1530 1530 1529
1466 1471 1472 1473 1477 1478 1477 1477 1477 1479 1481 1483 1484 1484 1482 1480 1479 1481 1483 1484 1483 1486 1493 1496 1494 1497 1501 1499 1497 1495 1492 1490 1489 1487 1486 1486 1486 1487 1487 1488 1489 1490 1491 1492 1492 1493 1494 1494 1495 1496 1497 1497 1498 1499 1499 1500 1500 1500 1501 1501 1501 1501 1502 1503 1504 1506 1507 1507 1509 1511 1511 1510 1512 1514 1517 1518 1518 1518 1519 1520 1522 1524 1527 1528 1529 1529
1466 1472 1473 1473 1477 1478 1477 1477 1479 1480 1481 1485 1489 1490 1486 1483 1483 1484 1486 1487 1485 1489 1495 1497 1497 1500 1502 1501 1499 1497 1495 1493 1491 1490 1489 1489 1489 1488 1488 1488 1489 1490 1492 1493 1493 1493 1493 1493 1494 1495 1496 1497 1498 1499 1499 1500 1500 1500 1501 1501 1501 1501 1501 1502 1503 1504 1506 1507 1509 1510 1510 1510 1511 1513 1515 1516 1517 1518 1518 1519 1520 1521 1522 1524 1525 1526
1467 1473 1474 1473 1478 1481 1478 1478 1480 1481 1483 1487 1491 1492 1489 1488 1489 1489 1491 1491 1490 1495 1499 1496 1497 1503 1504 1503 1502 1500 1498 1496 1494 1493 1493 1493 1492 1491 1490 1490 1490 1491 1492 1494 1495 1495 1494 1494 1494 1494 1495 1496 1498 1499 1499 1500 1500 1500 1500 1500 1501 1501 1501 1502 1502 1503 1504 1506 1507 1508 1509 1510 1510 1512 1514 1516 1517 1517 1517 1517 1518 1519 1520 1521 1522 1523
1467 1473 1474 1475 1481 1483 1480 1480 1482 1482 1483 1487 1493 1495 1493 1493 1495 1498 1500 1498 1496 1498 1498 1496 1500 1508 1508 1505 1503 1501 1500 1499 1498 1497 1497 1496 1495 1493 1493 1493 1492 1492 1493 1494 1495 1496 1497 1497 1496 1496 1496 1497 1498 1499 1499 1500 1500 1500 1500 1500 1501 1501 1502 1502 1502 1503 1504 1505 1506 1507 1508 1509 1511 1512 1514 1515 1515 1516 1516 1517 1517 1518 1519 1520 1520 1521
1469 1472 1475 1477 1482 1485 1483 1481 1481 1482 1485 1492 1498 1500 1500 1498 1500 1503 1505 1504 1502 1501 1501 1502 1507 1511 1509 1506 1504 1503 1503 1502 1502 1501 1500 1499 1497 1496 1496 1495 1494 1494 1493 1494 1495 1496 1498 1499 1498 1498 1499 1499 1499 1499 1499 1500 1500 1500 1500 1501 1501 1501 1502 1502 1503 1503 1504 1505 1506 1507 1508 1510 1511 1512 1513 1514 1514 1515 1515 1516 1516 1517 1518 1519 1519 1519
1470 1471 1475 1478 1481 1486 1486 1482 1482 1488 1494 1500 1502 1501 1501 1500 1501 1506 1511 1511 1508 1506 1506 1508 1510 1510 1509 1507 1506 1505 1506 1505 1505 1504 1503 1502 1501 1499 1498 1498 1498 1497 1496 1495 1495 1496 1497 1498 1498 1498 1500 1500 1501 1500 1500 1500 1500 1500 1500 1501 1501 1502 1502 1502 1503 1503 1504 1504 1505 1506 1507 1508 1510 1510 1511 1512 1513 1513 1514 1514 1515 1516 1517 1517 1518 1518
1471 1472 1476 1479 1481 1486 1488 1486 1490 1497 1500 1502 1503 1502 1502 1502 1502 1506 1513 1514 1511 1511 1511 1511 1511 1509 1509 1509 1508 1507 1508 1507 1507 1506 1505 1505 1504 1502 1501 1500 1500 1500 1499 1498 1498 1497 1497 1497 1497 1497 1498 1499 1500 1500 1501 1501 1500 1500 1500 1501 1502 1502 1502 1502 1502 1503 1503 1503 1504 1505 1506 1507 1508 1509 1510 1510 1511 1512 1512 1513 1514 1515 1516 1516 1516 1516
1470 1472 1475 1478 1482 1487 1490 1489 1494 1499 1500 1501 1503 1502 1502 1503 1501 1503 1510 1515 1514 1513 1512 1512 1512 1510 1508 1508 1508 1507 1507 1507 1506 1506 1507 1507 1506 1505 1504 1503 1502 1501 1501 1501 1501 1500 1499 1498 1496 1496 1497 1498 1498 1499 1500 1501 1501 1500 1500 1500 1501 1501 1501 1502 1502 1502 1502 1503 1503 1504 1505 1506 1507 1508 1509 1510 1510 1511 1511 1512 1513 1514 1514 1515 1515 1515
1468 1470 1472 1476 1481 1486 1489 1491 1495 1500 1503 1504 1504 1503 1502 1503 1501 1501 1510 1517 1515 1513 1513 1512 1511 1510 1508 1507 1507 1507 1506 1505 1504 1506 1507 1507 1507 1507 1506 1505 1504 1503 1503 1502 1502 1502 1502 1501 1499 1498 1498 1498 1497 1497 1498 1499 1500 1500 1499 1499 1500 1500 1501 1501 1501 1501 1501 1502 1503 1504 1504 1505 1506 1507 1508 1509 1510 1510 1510 1511 1512 1512 1513 1513 1514 1514
1466 1468 1469 1474 1480 1484 1488 1492 1496 1500 1503 1504 1505 1502 1500 1501 1500 1498 1506 1516 1515 1512 1513 1512 1511 1511 1509 1507 1507 1505 1504 1505 1507 1509 1508 1507 1507 1507 1507 1507 1506 1505 1504 1503 1503 1502 1502 1502 1501 1501 1500 1499 1499 1499 1498 1498 1498 1498 1498 1499 1499 1499 1500 1500 1500 1500 1500 1501 1501 1502 1503 1504 1505 1506 1507 1507 1508 1509 1509 1510 1511 1511 1512 1512 1512 1512
1467 1469 1470 1472 1478 1482 1484 1487 1492 1497 1502 1505 1505 1500 1497 1498 1498 1497 1505 1516 1516 1512 1513 1512 1511 1512 1511 1509 1508 1506 1506 1509 1511 1511 1509 1507 1507 1506 1506 1506 1506 1505 1505 1504 1503 1503 1502 1502 1502 1502 1501 1500 1500 1500 1500 1500 1499 1499 1498 1497 1498 1498 1498 1499 1499 1500 1499 1500 1500 1501 1502 1503 1504 1504 1505 1505 1506 1507 1508 1509 1509 1510 1510 1511 1511 1511
1470 1473 1474 1475 1478 1480 1482 1488 1497 1503 1505 1505 1502 1499 1497 1496 1495 1498 1508 1516 1515 1513 1513 1512 1512 1512 1512 1511 1510 1509 1510 1512 1511 1510 1509 1508 1507 1506 1505 1505 1504 1504 1504 1504 1503 1503 1502 1501 1501 1501 1501 1501 1500 1500 1500 1500 1500 1500 1499 1497 1496 1496 1496 1497 1498 1499 1499 1499 1499 1500 1501 1502 1503 1504 1504 1504 1505 1505 1506 1507 1507 1508 1509 1509 1509 1509
1478 1478 1480 1480 1482 1482 1484 1494 1504 1507 1505 1503 1501 1500 1497 1495 1497 1505 1513 1516 1514 1513 1513 1512 1512 1512 1512 1511 1511 1511 1511 1512 1510 1509 1508 1507 1506 1505 1505 1504 1503 1503 1502 1502 1502 1502 1501 1500 1500 1499 1499 1499 1499 1499 1499 1499 1499 1499 1498 1497 1497 1496 1496 1497 1497 1497 1498 1498 1499 1499 1500 1501 1502 1502 1502 1503 1503 1503 1504 1505 1505 1506 1507 1507 1507 1507
1489 1488 1487 1487 1488 1487 1487 1495 1506 1510 1506 1503 1502 1500 1497 1498 1506 1513 1515 1514 1513 1513 1512 1511 1512 1512 1511 1511 1511 1511 1510 1509 1508 1507 1506 1505 1504 1503 1503 1502 1502 1501 1500 1500 1500 1500 1500 1499 1498 1497 1497 1496 1496 1497 1497 1497 1497 1496 1496 1496 1495 1495 1495 1495 1495 1495 1496 1496 1497 1498 1498 1499 1500 1500 1501 1501 1501 1501 1502 1503 1503 1504 1505 1505 1505 1504
1496 1496 1496 1497 1496 1494 1494 1499 1509 1514 1509 1502 1501 1502 1503 1507 1513 1515 1513 1513 1513 1512 1511 1511 1511 1511 1510 1510 1509 1509 1508 1507 1506 1505 1504 1503 1502 1501 1500 1500 1500 1499 1498 1497 1497 1497 1497 1497 1496 1496 1495 1494 1494 1493 1493 1494 1493 1493 1493 1493 1493 1493 1493 1493 1493 1493 1493 1494 1494 1495 1496 1497 1498 1498 1498 1499 1499 1500 1501 1501 1502 1503 1503 1503 1503 1503
1497 1497 1500 1501 1499 1499 1504 1508 1512 1513 1509 1503 1504 1508 1511 1512 1513 1513 1511 1511 1511 1511 1511 1510 1510 1510 1509 1509 1508 1507 1506 1505 1504 1503 1502 1501 1501 1500 1499 1498 1498 1497 1497 1496 1495 1494 1494 1494 1493 1493 1492 1492 1491 1490 1490 1490 1489 1489 1490 1490 1490 1491 1490 1490 1491 1491 1491 1491 1492 1492 1493 1494 1495 1496 1496 1497 1497 1498 1499 1500 1501 1501 1502 1502 1501 1501
1498 1496 1498 1500 1501 1503 1508 1511 1511 1510 1509 1508 1508 1510 1512 1512 1512 1512 1511 1511 1511 1510 1510 1509 1509 1508 1508 1507 1506 1505 1504 1503 1502 1501 1500 1499 1498 1497 1496 1496 1495 1494 1494 1493 1493 1492 1491 1490 1489 1489 1489 1489 1489 1488 1487 1486 1486 1485 1485 1486 1487 1487 1486 1487 1487 1487 1488 1488 1489 1489 1490 1491 1492 1493 1494 1494 1495 1496 1496 1498 1498 1499 1500 1500 1500 1500
1498 1495 1495 1499 1503 1504 1507 1510 1510 1509 1510 1510 1510 1511 1511 1511 1511 1511 1510 1510 1510 1510 1509 1508 1508 1507 1506 1506 1504 1503 1502 1501 1500 1498 1497 1496 1495 1494 1493 1492 1491 1491 1490 1489 1489 1488 1488 1486 1485 1484 1484 1484 1485 1485 1484 1484 1483 1482 1482 1482 1483 1483 1483 1483 1483 1484 1484 1485 1486 1487 1487 1488 1489 1490 1491 1492 1493 1493 1494 1495 1495 1496 1497 1497 1498 1498
1498 1496 1496 1499 1501 1504 1508 1511 1510 1509 1509 1509 1509 1510 1510 1510 1510 1510 1509 1509 1509 1508 1508 1507 1506 1506 1505 1504 1502 1501 1500 1499 1497 1496 1495 1493 1492 1491 1490 1489 1487 1487 1487 1486 1485 1484 1484 1483 1481 1480 1479 1479 1480 1480 1480 1480 1480 1480 1479 1479 1480 1480 1480 1479 1480 1480 1481 1481 1482 1483 1484 1485 1486 1487 1488 1489 1490 1490 1491 1492 1493 1493 1494 1495 1495 1496
1499 1498 1499 1501 1501 1504 1509 1510 1509 1508 1509 1508 1508 1509 1508 1508 1509 1509 1508 1508 1507 1507 1506 1506 1505 1504 1503 1502 1501 1499 1498 1497 1495 1493 1492 1490 1489 1488 1486 1485 1484 1483 1482 1481 1481 1480 1480 1478 1477 1476 1475 1474 1475 1475 1475 1475 1475 1476 1476 1476 1476 1476 1476 1476 1476 1477 1477 1478 1479 1479 1480 1481 1482 1483 1484 1485 1486 1487 1488 1489 1490 1490 1491 1492 1493 1493
1499 1499 1501 1502 1503 1506 1509 1508 1507 1506 1506 1506 1507 1508 1507 1507 1507 1507 1507 1507 1506 1505 1504 1503 1502 1502 1500 1499 1498 1496 1495 1494 1492 1491 1489 1488 1486 1485 1483 1482 1480 1479 1478 1477 1476 1476 1475 1474 1473 1472 1471 1470 1470 1470 1470 1470 1470 1471 1471 1471 1472 1472 1472 1472 1473 1473 1474 1475 1475 1476 1477 1478 1478 1479 1480 1481 1482 1483 1484 1485 1486 1487 1488 1489 1490 1491
1500 1502 1503 1503 1504 1508 1510 1508 1507 1507 1506 1506 1506 1506 1505 1505 1505 1504 1504 1504 1503 1502 1501 1500 1500 1499 1498 1497 1496 1494 1493 1491 1490 1488 1487 1485 1484 1482 1480 1479 1477 1475 1474 1473 1472 1471 1470 1469 1468 1467 1466 1465 1465 1465 1465 1465 1465 1465 1465 1466 1466 1467 1467 1467 1468 1469 1470 1471 1472 1473 1474 1474 1475 1476 1477 1478 1479 1480 1481 1483 1484 1485 1486 1487 1488 1489
1501 1503 1504 1504 1505 1507 1508 1507 1507 1507 1507 1507 1506 1505 1504 1504 1503 1503 1502 1502 1501 1500 1499 1498 1497 1496 1496 1495 1494 1492 1491 1489 1487 1486 1483 1482 1480 1478 1476 1475 1473 1471 1469 1468 1467 1466 1465 1464 1463 1462 1461 1460 1460 1459 1459 1459 1459 1459 1460 1461 1461 1462 1462 1462 1463 1464 1465 1466 1468 1469 1470 1471 1472 1473 1473 1474 1476 1477 1478 1480 1481 1482 1483 1485 1485 1486